Regional Weather Roundup
Issued by NWS Kansas City/Pleasant Hill, MO

Home | Current Version | Previous Version | Text Only | Print | Product List | Glossary On
Versions: 1 2 3 4 5 6 7 8 9 10 11 12 13 14 15 16 17 18 19 20 21 22 23 24 25 26 27 28 29 30 31 32 33 34 35 36 37 38 39 40 41 42 43 44 45 46 47 48 49 50
000
ASUS43 KEAX 031311
RWREAX

WEATHER ROUNDUP FOR EASTERN KANSAS AND NORTHWEST MISSOURI
NATIONAL WEATHER SERVICE KANSAS CITY/PLEASANT HILL MO
800 AM CDT SUN MAY 03 2015

KSZ040-057-103>105-MOZ028-029-037-043-031400-
...KANSAS CITY METROPOLITAN AREA...

CITY           SKY/WX    TMP DP  RH WIND       PRES   REMARKS
K.C. INTL      CLOUDY    64  55  72 S14       29.86R
K.C. DOWNTOWN  CLOUDY    65  53  65 S15       29.86S
LEES SUMMIT    PTSUNNY   63  52  67 S13G23    29.90R
OLATHE - IXD   CLOUDY    62  53  72 S12       29.90R
OLATHE - OJC   CLOUDY    62  53  72 S12       29.89R
LAWRENCE       CLOUDY    63  55  75 S7        29.87R

$$

MOZ001>008-011>017-020>025-030>033-038>040-044>046-053-054-031400-
...NORTHERN AND CENTRAL MISSOURI...

CITY           SKY/WX    TMP DP  RH WIND       PRES   REMARKS
ST. JOSEPH     PTSUNNY   63  56  78 S5        29.84S
MOSBY          CLOUDY    63  52  67 SE6       29.87S
WARRENSBURG    PTSUNNY   63  50  63 S12G17    29.91F
WHITEMAN AFB   MOSUNNY   63  53  67 S17       29.91F
CLINTON        PTSUNNY   64  54  68 S12       29.95F
SEDALIA        PTSUNNY   65  51  60 S14       29.96S
WARSAW         NOT AVBL
MARSHALL       PTSUNNY   68  54  60 S13       29.93F
CHILLICOTHE      N/A     65  54  67 S7        29.88F
MOBERLY        PTSUNNY   63  46  55 S12       29.96R
KIRKSVILLE     PTSUNNY   62  53  72 S13       29.93R

$$

MOZ041-047>049-056>058-063>065-088>090-097-031400-
...EASTERN AND SOUTHERN MISSOURI...

CITY           SKY/WX    TMP DP  RH WIND       PRES   REMARKS
ST. LOUIS INTL PTSUNNY   67  45  45 S9        30.02R
SPIRIT OF STL  PTSUNNY   67  46  47 VRB6      30.01R
COLUMBIA       PTSUNNY   61  50  67 S9        29.98R
JEFFERSON CITY CLOUDY    62  48  60 SE5       30.00R
MEXICO         CLOUDY    63  52  67 S9        29.98R
HANNIBAL       MOSUNNY   64  46  52 S10       29.97S
ROLLA          PTSUNNY   62  48  60 S12       30.01R
LEBANON        PTSUNNY   61  50  67 S8        30.03R
OSAGE BEACH    CLOUDY    61  46  59 S5        30.01R
SPRINGFIELD    PTSUNNY   60  50  69 S12       30.01R
BRANSON        PTSUNNY   61  50  67 CALM      30.04R
NEVADA         CLOUDY    64  54  68 S14       29.96S
JOPLIN         CLOUDY    63  52  67 S10       29.97R
WEST PLAINS    PTSUNNY   61  42  49 S3        30.06R

$$

IAZ060-094-KSZ022-034>040-054-083-096-NEZ052-066-093-031400-
...KANSAS...SOUTHEAST NEBRASKA AND IOWA...

CITY           SKY/WX    TMP DP  RH WIND       PRES   REMARKS
TOPEKA         PTSUNNY   64  56  75 S14       29.84S
MANHATTAN      PTSUNNY   66  57  72 S10       29.80R
EMPORIA        MOSUNNY   62  54  74 S20       29.84S
CHANUTE        PTSUNNY   63  54  72 S13       29.92R
WICHITA        PTSUNNY   65  54  67 S18       29.85R
OMAHA          PTSUNNY   63  56  78 S16       29.75R
LINCOLN        SUNNY     64  55  72 S16       29.75S
FALLS CITY     MOSUNNY   65  56  72 S12G21    29.80S
LAMONI         PTSUNNY   59  53  80 S9        29.83F
DES MOINES     CLOUDY    63  55  75 SW10      29.80R

$$



USA.gov is the U.S. government's official web portal to all federal, state and local government web resources and services.